Location: Unspecified
(0.0000°N, 0.0000°E)
Time: 05:32:03
(UTC+02:00)

Meteor PRIRODA - Visible Passes

Search period start: 31 July 2016 00:00
Search period end: 10 August 2016 00:00
Orbit: 495 x 518 km, 97.4° (Epoch: 29 July)

Date Brightness Start Highest point End Pass type
(mag) Time Alt. Az. Time Alt. Az. Time Alt. Az.
31 Jul 6.0 06:55:02 10° NW 06:55:11 11° NW 06:55:11 11° NW visible
01 Aug 5.8 06:36:36 10° NNW 06:37:29 15° NNW 06:37:29 15° NNW visible
02 Aug 5.8 06:18:45 10° N 06:19:48 18° N 06:19:48 18° N visible
03 Aug 6.2 06:01:16 10° NNE 06:02:07 16° NNE 06:02:07 16° NNE visible
04 Aug 6.8 05:44:08 10° NE 05:44:26 12° NE 05:44:26 12° NE visible
06 Aug 6.0 06:43:19 10° NNW 06:43:52 13° NNW 06:43:52 13° NNW visible
07 Aug 5.9 06:25:17 10° N 06:26:11 16° NNW 06:26:11 16° NNW visible
08 Aug 6.1 06:07:40 10° N 06:08:29 16° N 06:08:29 16° N visible
09 Aug 6.6 05:50:23 10° NNE 05:50:48 13° NNE 05:50:48 13° NNE visible
